Notices

What's New in latest Release from April 7th, 2021:

- Updated Glossary, including Speed of Maximum Gust, and Total Hourly Precipitation

- Updated national and regional climate services offices contacts and prices information

- Addition of station inventory lists for 1981-2010, 1971-2000, and 1961-1990 Normals.

If you haven't already, please take our survey and provide feedback about our website: https://eccc.sondage-survey.ca/f/LanguageSelection.aspx?s=442ca660-fcf1-47c0-95a9-59707d6fd709

Hourly Data Report for April 07, 2012

MIRAMICHI RCS
NEW BRUNSWICK

47°00'34.000" N
65°27'54.000" W
33.00 m
8100989
71744
ACQ

Download Data

Hourly Data (April 2012)
Hourly Data Report for April 7, 2012
TIME
LST
Temp Definition
°C
Dew Point Definition
°C
Rel Hum Definition
%
Precip. Amount Definition
mm

Wind Dir Definition
10's deg

Wind Spd Definition
km/h
Visibility Definition
km
Stn Press Definition
kPa
Hmdx Definition


Wind Chill Definition


Weather Definition


00:00 -1.0 -6.4 67   35 4   100.86   -2 LegendNANA
01:00 -0.7 -6.0 67   35 4   100.89   -2 LegendNANA
02:00 0.1 -6.6 61   34 4   100.91     LegendNANA
03:00 -0.3 -6.4 63   32 4   100.93   -2 LegendNANA
04:00 -0.2 -6.8 61   35 2   100.93   -1 LegendNANA
05:00 -0.2 -6.9 61   1 4   100.96   -1 LegendNANA
06:00 -0.5 -6.5 64   34 4   101.01   -2 LegendNANA
07:00 0.0 -6.6 61   34 6   101.03   -2 LegendNANA
08:00 0.8 -6.8 57   36 7   101.04     LegendNANA
09:00 2.2 -7.0 51   2 11   101.09     LegendNANA
10:00 3.4 -6.1 50   5 11   101.13     LegendNANA
11:00 4.1 -4.2 55   8 17   101.14     LegendNANA
12:00 4.6 -4.1 53   7 19   101.12     LegendNANA
13:00 3.4 -5.7 51   6 22   101.11     LegendNANA
14:00 3.1 -5.7 52   6 26   101.11     LegendNANA
15:00 3.1 -5.6 53   6 22   101.12     LegendNANA
16:00 4.1 -6.2 47   8 28   101.12     LegendNANA
17:00 2.7 -6.5 51   7 26   101.10     LegendNANA
18:00 2.1 -6.1 55   7 24   101.11     LegendNANA
19:00 0.7 -6.3 59   6 15   101.13     LegendNANA
20:00 0.1 -7.1 58   5 9   101.13     LegendNANA
21:00 -0.2 -7.8 56   5 9   101.06   -3 LegendNANA
22:00 -0.3 -7.0 61   2 6   100.99   -2 LegendNANA
23:00 0.2 -7.3 57   2 7   100.91     LegendNANA

Notes on Data Quality.

Legend

  • E = Estimated
  • M = Missing
  • NA = Not Available*
  • [empty] = Indicates an unobserved value
Date modified: